Current Conditions
Mostly Scattered
Clouds



Pressure
1022.92 (hPa) - 30.21 (inHG)
Visibility

6.2 (mimiles) - 10.0 (km)
   Temperature
10  °C
50°F
-1  °C
Dewpoint
47  %
 Humidity
   Wind Speed
7  kts
8  mph
13  km/h
3.6  m/s
   Wind Direction
 330°
North North
West
   Airport Data
EGHI
Location Southampton 35 mi (56.32 km)
Metar :EGHI 011320Z 33007KT 300V020 9999 SCT048 10/M01 Q1023
Wed 1st April 13:20 pm
   Raw Metar Info
Raw METAR is the most common format in the world for the transmission of observational weather data. It is highly standardized through the International Civil Aviation Organization (ICAO), which allows it to be understood throughout most of the world.
   API Info
Data Provided by
https://www.checkwx.com/weather/EGHI
   © Info
CSS/SVG/PHP scripts were developed by weather34.com for use in the weather34 template © 2015-2020

Guide Info provided by Metar-Wikipedia